Hourly Data Report for October 10, 2013

All times are specified in Local Standard Time (LST). Add 1 hour to adjust for Daylight Saving Time where and when it is observed.

MONCTON INTL A
NEW BRUNSWICK

46°06'44.000" N
64°40'43.000" W
70.70 m
8103201
71705
YQM

Download Data

Hourly Data (October 2013)
Hourly Data Report for October 10, 2013
Temp Definition
°C
Dew Point Temp Definition
°C
Rel Hum Definition
%
Wind Dir Definition
10's deg

Wind Spd Definition
km/h
Visibility Definition
km
Stn Press Definition
kPa
Hmdx Definition


Wind Chill Definition


Weather Definition


TIME
00:00 Legend Double Dagger 5.7 3.7 87 23 12 24.1 101.72     LegendNANA
01:00 Legend Double Dagger 6.2 4.4 88 22 16 24.1 101.68     LegendNANA
02:00 Legend Double Dagger 6.3 4.3 87 22 17 24.1 101.63     Clear
03:00 Legend Double Dagger 4.9 3.7 92 22 14 24.1 101.59     LegendNANA
04:00 Legend Double Dagger 4.8 3.3 90 22 16 24.1 101.56     LegendNANA
05:00 Legend Double Dagger 5.8 3.7 86 22 16 24.1 101.55     Clear
06:00 Legend Double Dagger 5.2 3.4 88 23 16 24.1 101.53     LegendNANA
07:00 Legend Double Dagger 5.8 3.7 86 22 13 24.1 101.53     LegendNANA
08:00 Legend Double Dagger 8.3 4.9 79 23 15 24.1 101.56     Mostly Cloudy
09:00 Legend Double Dagger 11.5 5.6 67 23 25 24.1 101.54     LegendNANA
10:00 Legend Double Dagger 13.9 6.1 59 24 28 24.1 101.51     LegendNANA
11:00 Legend Double Dagger 16.2 5.6 49 23 26 24.1 101.44     Mostly Cloudy
12:00 Legend Double Dagger 17.6 5.6 45 24 27 24.1 101.38     LegendNANA
13:00 Legend Double Dagger 18.7 5.7 42 22 31 24.1 101.34     LegendNANA
14:00 Legend Double Dagger 19.2 6.1 42 24 26 24.1 101.29     Mostly Cloudy
15:00 Legend Double Dagger 19.2 6.5 43 22 20 24.1 101.25     LegendNANA
16:00 Legend Double Dagger 19.2 7.1 45 22 23 24.1 101.22     LegendNANA
17:00 Legend Double Dagger 17.9 7.4 50 22 16 24.1 101.22     Mostly Cloudy
18:00 Legend Double Dagger 14.7 7.8 63 21 13 24.1 101.24     LegendNANA
19:00 Legend Double Dagger 13.6 8.3 70 23 16 24.1 101.27     LegendNANA
20:00 Legend Double Dagger 12.7 8.2 74 23 19 24.1 101.26     Mostly Cloudy
21:00 Legend Double Dagger 11.6 8.1 79 22 17 24.1 101.28     LegendNANA
22:00 Legend Double Dagger 11.1 7.8 80 24 18 24.1 101.28     LegendNANA
23:00 Legend Double Dagger 10.3 7.6 83 22 18 24.1 101.27     Clear

Notes on Data Quality.

Legend

  • E = Estimated
  • M = Missing
  • NA = Not Available
  • ‡ = Partner data that is not subject to review by the National Climate Archives
Date modified: